When you browse on this site, cookies collect data to enhance your experience and personalize the content and advertising you see.
Visit our Privacy Policy to learn more. By continuing to use the site, you agree to this use of cookies and data.
  • In Denmark
  • List of Countries
  • For 7 days
  • Water Temperature
  • Satellite Maps
  • Weather Map
  • Weather Widgets
  • user-avatar
    Login

    Hourly Weather Pontypool

    Today, 22 April, Monday

    Time Temperature Precipitation Wind Pressure Humidity
    00:00 +12°C° 0 mm 2 mps 744 mmHg 83%
    01:00 +11°C° 0 mm 1 mps 743 mmHg 85%
    02:00 +10°C° 0 mm 1 mps 742 mmHg 86%
    03:00 +10°C° 0 mm 1 mps 742 mmHg 88%
    04:00 +9°C° 0 mm 1 mps 741 mmHg 86%
    05:00 +8°C° 0 mm 2 mps 741 mmHg 84%
    06:00 +8°C° 0 mm 2 mps 740 mmHg 77%
    07:00 +10°C° 0 mm 2 mps 740 mmHg 72%
    08:00 +12°C° 0 mm 3 mps 739 mmHg 67%
    09:00 +14°C° 0 mm 3 mps 739 mmHg 62%
    10:00 +15°C° 0.1 mm 4 mps 739 mmHg 63%
    11:00 +18°C° 0.1 mm 4 mps 738 mmHg 63%
    12:00 +19°C° 0.1 mm 5 mps 738 mmHg 64%
    13:00 +19°C° 0.2 mm 5 mps 737 mmHg 64%
    14:00 +19°C° 0.2 mm 5 mps 737 mmHg 64%
    15:00 +19°C° 0.2 mm 5 mps 736 mmHg 65%
    16:00 +17°C° 0.1 mm 5 mps 736 mmHg 70%
    17:00 +17°C° 0.1 mm 4 mps 736 mmHg 76%
    18:00 +17°C° 0.1 mm 3 mps 735 mmHg 81%
    19:00 +14°C° 0 mm 3 mps 736 mmHg 84%
    20:00 +14°C° 0 mm 2 mps 736 mmHg 86%
    21:00 +13°C° 0 mm 2 mps 736 mmHg 89%
    22:00 +12°C° 0 mm 2 mps 735 mmHg 89%
    23:00 +12°C° 0 mm 2 mps 735 mmHg 90%

    Tomorrow, 23 April, Tuesday

    Time Temperature Precipitation Wind Pressure Humidity
    00:00 +10°C° 0 mm 2 mps 735 mmHg 91%
    01:00 +10°C° 0 mm 2 mps 734 mmHg 90%
    02:00 +10°C° 0 mm 2 mps 734 mmHg 89%
    03:00 +10°C° 0 mm 3 mps 733 mmHg 89%
    04:00 +10°C° 0 mm 3 mps 733 mmHg 90%
    05:00 +10°C° 0 mm 3 mps 733 mmHg 91%
    06:00 +9°C° 0 mm 3 mps 733 mmHg 91%
    07:00 +11°C° 0 mm 3 mps 733 mmHg 87%
    08:00 +13°C° 0 mm 3 mps 732 mmHg 82%
    09:00 +16°C° 0 mm 3 mps 732 mmHg 78%
    10:00 +18°C° 0 mm 4 mps 732 mmHg 75%
    11:00 +19°C° 0 mm 4 mps 732 mmHg 73%
    12:00 +20°C° 0 mm 5 mps 732 mmHg 70%
    13:00 +20°C° 0.3 mm 5 mps 732 mmHg 71%
    14:00 +20°C° 0.3 mm 5 mps 732 mmHg 71%
    15:00 +20°C° 0.3 mm 5 mps 731 mmHg 71%
    16:00 +19°C° 0.3 mm 5 mps 731 mmHg 75%
    17:00 +18°C° 0.3 mm 4 mps 731 mmHg 80%
    18:00 +17°C° 0.3 mm 4 mps 731 mmHg 84%
    19:00 +16°C° 0 mm 3 mps 731 mmHg 86%
    20:00 +14°C° 0 mm 3 mps 730 mmHg 88%
    21:00 +12°C° 0 mm 3 mps 730 mmHg 90%
    22:00 +11°C° 0 mm 3 mps 730 mmHg 91%
    23:00 +10°C° 0 mm 3 mps 730 mmHg 92%

    Day after tomorrow, 24 April, Wednesday

    Time Temperature Precipitation Wind Pressure Humidity
    00:00 +9°C° 0 mm 3 mps 729 mmHg 93%
    01:00 +9°C° 0 mm 3 mps 729 mmHg 94%
    02:00 +9°C° 0 mm 3 mps 728 mmHg 94%
    03:00 +8°C° 0 mm 3 mps 728 mmHg 95%
    04:00 +9°C° 0.5 mm 3 mps 728 mmHg 96%
    05:00 +9°C° 0.5 mm 3 mps 728 mmHg 97%
    06:00 +10°C° 0.5 mm 3 mps 728 mmHg 97%
    07:00 +8°C° 1.5 mm 4 mps 728 mmHg 96%
    08:00 +8°C° 1.5 mm 4 mps 729 mmHg 94%
    09:00 +7°C° 1.5 mm 5 mps 729 mmHg 92%
    10:00 +8°C° 0.2 mm 5 mps 730 mmHg 88%
    11:00 +9°C° 0.2 mm 6 mps 730 mmHg 83%
    12:00 +11°C° 0.2 mm 6 mps 730 mmHg 79%
    13:00 +11°C° 0.3 mm 7 mps 730 mmHg 77%
    14:00 +11°C° 0.3 mm 7 mps 731 mmHg 75%
    15:00 +11°C° 0.3 mm 8 mps 731 mmHg 73%
    16:00 +11°C° 0.1 mm 7 mps 730 mmHg 75%
    17:00 +10°C° 0.1 mm 6 mps 730 mmHg 77%
    18:00 +10°C° 0.1 mm 5 mps 730 mmHg 78%
    19:00 +9°C° 0 mm 5 mps 730 mmHg 82%
    20:00 +8°C° 0 mm 6 mps 730 mmHg 85%
    21:00 +7°C° 0 mm 6 mps 729 mmHg 89%
    22:00 +7°C° 0.5 mm 6 mps 729 mmHg 90%
    23:00 +7°C° 0.5 mm 6 mps 729 mmHg 91%

    25 April, Thursday

    Time Temperature Precipitation Wind Pressure Humidity
    00:00 +8°C° 0.5 mm 7 mps 729 mmHg 92%
    01:00 +8°C° 0.4 mm 6 mps 728 mmHg 92%
    02:00 +7°C° 0.4 mm 6 mps 728 mmHg 93%
    03:00 +7°C° 0.4 mm 5 mps 728 mmHg 93%
    04:00 +7°C° 0.1 mm 5 mps 728 mmHg 93%
    05:00 +6°C° 0.1 mm 5 mps 728 mmHg 92%
    06:00 +6°C° 0.1 mm 5 mps 727 mmHg 92%
    07:00 +6°C° 0.2 mm 7 mps 727 mmHg 88%
    08:00 +7°C° 0.2 mm 8 mps 727 mmHg 84%
    09:00 +8°C° 0.2 mm 10 mps 727 mmHg 79%
    10:00 +7°C° 0.9 mm 10 mps 727 mmHg 83%
    11:00 +7°C° 0.9 mm 9 mps 727 mmHg 87%
    12:00 +6°C° 0.9 mm 9 mps 727 mmHg 91%
    13:00 +7°C° 0.3 mm 10 mps 728 mmHg 89%
    14:00 +7°C° 0.3 mm 11 mps 729 mmHg 87%
    15:00 +8°C° 0.3 mm 12 mps 729 mmHg 85%
    16:00 +8°C° 0 mm 10 mps 731 mmHg 83%
    17:00 +9°C° 0 mm 8 mps 732 mmHg 80%
    18:00 +9°C° 0 mm 7 mps 733 mmHg 78%
    19:00 +8°C° 0 mm 7 mps 734 mmHg 79%
    20:00 +8°C° 0 mm 7 mps 735 mmHg 80%
    21:00 +7°C° 0 mm 6 mps 736 mmHg 81%
    22:00 +7°C° 0 mm 6 mps 736 mmHg 82%
    23:00 +7°C° 0 mm 6 mps 736 mmHg 84%

    26 April, Friday

    Time Temperature Precipitation Wind Pressure Humidity
    00:00 +6°C° 0 mm 5 mps 736 mmHg 85%
    01:00 +6°C° 0 mm 5 mps 736 mmHg 87%
    02:00 +6°C° 0 mm 5 mps 737 mmHg 89%
    03:00 +6°C° 0 mm 4 mps 737 mmHg 91%
    04:00 +6°C° 0 mm 4 mps 737 mmHg 92%
    05:00 +6°C° 0 mm 4 mps 737 mmHg 93%
    06:00 +7°C° 0 mm 3 mps 738 mmHg 93%
    07:00 +8°C° 0 mm 3 mps 739 mmHg 92%
    08:00 +9°C° 0 mm 2 mps 739 mmHg 90%
    09:00 +11°C° 0 mm 1 mps 740 mmHg 88%
    10:00 +10°C° 0.4 mm 3 mps 741 mmHg 87%
    11:00 +10°C° 0.4 mm 5 mps 742 mmHg 86%
    12:00 +10°C° 0.4 mm 7 mps 743 mmHg 85%
    13:00 +10°C° 0.1 mm 7 mps 744 mmHg 83%
    14:00 +9°C° 0.1 mm 7 mps 744 mmHg 81%
    15:00 +8°C° 0.1 mm 7 mps 745 mmHg 79%
    16:00 +8°C° 0 mm 7 mps 745 mmHg 77%
    17:00 +6°C° 0 mm 7 mps 745 mmHg 76%
    18:00 +6°C° 0 mm 7 mps 746 mmHg 74%
    19:00 +6°C° 0.2 mm 7 mps 746 mmHg 80%
    20:00 +6°C° 0.2 mm 7 mps 746 mmHg 85%
    21:00 +6°C° 0.2 mm 7 mps 745 mmHg 90%
    22:00 +5°C° 0.1 mm 7 mps 746 mmHg 88%
    23:00 +5°C° 0.1 mm 7 mps 746 mmHg 87%

    27 April, Saturday

    Time Temperature Precipitation Wind Pressure Humidity
    00:00 +5°C° 0.1 mm 7 mps 746 mmHg 85%
    01:00 +4°C° 0 mm 6 mps 747 mmHg 85%
    02:00 +3°C° 0 mm 5 mps 747 mmHg 86%
    03:00 +3°C° 0 mm 5 mps 747 mmHg 87%
    04:00 +3°C° 0 mm 5 mps 748 mmHg 86%
    05:00 +4°C° 0 mm 4 mps 748 mmHg 86%
    06:00 +4°C° 0 mm 4 mps 748 mmHg 86%
    07:00 +5°C° 0 mm 5 mps 748 mmHg 81%
    08:00 +7°C° 0 mm 6 mps 749 mmHg 77%
    09:00 +8°C° 0 mm 7 mps 749 mmHg 72%
    10:00 +8°C° 0.6 mm 6 mps 748 mmHg 79%
    11:00 +8°C° 0.6 mm 6 mps 748 mmHg 86%
    12:00 +8°C° 0.6 mm 6 mps 747 mmHg 93%
    13:00 +9°C° 1.2 mm 8 mps 747 mmHg 93%
    14:00 +10°C° 1.2 mm 9 mps 746 mmHg 93%
    15:00 +11°C° 1.2 mm 11 mps 746 mmHg 93%
    16:00 +11°C° 0.1 mm 10 mps 746 mmHg 93%
    17:00 +11°C° 0.1 mm 10 mps 747 mmHg 93%
    18:00 +11°C° 0.1 mm 10 mps 747 mmHg 92%
    19:00 +11°C° 0.1 mm 9 mps 747 mmHg 93%
    20:00 +10°C° 0.1 mm 9 mps 748 mmHg 93%
    21:00 +10°C° 0.1 mm 8 mps 748 mmHg 93%
    22:00 +10°C° 0.1 mm 8 mps 748 mmHg 93%
    23:00 +10°C° 0.1 mm 7 mps 748 mmHg 94%
    Show more